Location: Kolin
(50.0330°N, 15.2000°E)
Time: 07:59:22
(UTC+02:00)

Gurwin Techsat 1B - Pass Details

Date: 17 August 2022
Orbit: 811 x 814 km, 98.8° (Epoch: 25 September)

Event Time Altitude Azimuth Distance (km) Brightness Sun altitude
Rises 02:39:21 0° 24° (NNE) 3,351 13.3 -23.1°
Reaches altitude 10° 02:42:07 10° 37° (NE) 2,413 12.1 -22.9°
Maximum altitude 02:46:29 25° 92° (E) 1,590 10.3 -22.6°
Enters shadow 02:49:47 15° 139° (SE) 2,097 10.5 -22.3°
